Вернуться в каталог

CZ-6A DEB

АктивенPO
NORAD 55899·DEBRIS·🇨🇳 China

Запущен Nov 11, 2022 с Taiyuan Satellite Launch Center

Loading…

Ближайшие Пролёты (ближайшие 24 часа)

TLE

СвежийSource: Space-Track

Эпоха: Sep 12, 2026, 04:18 UTC

1 55899U 22151AAX 26255.17943496  .00013022  00000-0  13991-2 0  9993
2 55899  98.6234 338.4682 0048159 328.6362  31.1981 14.87850040197547

Отслеживайте CZ-6A DEB в реальном времени с AllMySat

Download on the App Store